Helicity
75 42 34 24 57 48 48 52 25 41 52 46 98 101 82 105 81 81 41 113 83 61 69 38 54 48 33 21 10 8 10 13 16 29 51 62 60 57 55 37 39 47 58 60 67 78 76 67 52
78 56 32 60 76 59 44 33 45 45 88 77 65 59 77 77 47 42 29 75 67 59 70 57 64 52 34 26 20 15 16 13 7 19 54 96 74 58 53 50 44 47 52 50 56 52 48 31 32
59 47 68 60 28 26 47 85 49 90 44 38 79 58 60 79 57 46 74 69 60 47 55 105 73 54 46 29 18 15 16 17 16 -0 31 73 65 55 57 52 50 52 50 55 53 46 46 51 49
69 59 82 80 7 -8 19 93 67 49 52 61 112 101 55 89 47 94 67 53 55 52 59 126 100 83 63 41 26 19 19 18 20 28 74 61 63 60 53 53 44 43 46 53 56 56 47 42 43
72 99 89 57 -9 -16 57 49 83 79 110 68 74 56 78 58 60 50 55 57 50 67 119 80 102 81 71 43 36 28 26 22 23 42 40 36 45 51 57 55 49 42 38 38 42 40 31 28 25
124 120 111 72 8 21 28 60 61 61 62 66 64 74 62 62 30 51 45 48 69 100 112 104 84 79 81 50 43 35 29 24 24 23 21 27 26 30 37 45 39 34 30 23 18 22 23 24 20
133 114 99 67 39 37 65 67 78 56 32 42 49 105 79 65 107 43 43 61 65 91 86 78 52 69 91 63 50 41 35 23 20 16 25 31 29 9 -20 17 31 22 23 16 14 21 19 21 17
126 123 74 75 37 29 61 78 85 89 74 85 115 93 62 173 67 55 61 62 68 84 79 76 64 71 64 58 56 53 47 38 34 25 41 32 20 -0 47 75 41 23 16 18 28 28 26 27 29
149 146 100 71 46 64 98 140 70 118 126 102 77 85 124 125 74 74 63 60 60 63 66 68 72 82 69 69 75 67 61 51 46 38 47 25 -4 20 34 74 63 40 30 30 31 28 24 16 22
168 120 85 78 74 67 121 58 88 123 71 106 101 99 116 114 87 87 88 83 67 50 48 60 64 74 71 105 114 61 59 47 38 38 51 16 24 56 84 70 55 46 39 30 28 24 5 1 20
103 70 67 116 198 188 149 102 91 120 123 70 63 79 74 151 125 108 98 99 93 61 64 64 71 71 71 93 98 96 82 45 43 49 59 32 59 62 46 52 39 31 18 15 16 12 31 55 52
90 93 82 148 91 99 84 79 64 49 68 110 93 134 217 155 148 122 121 113 117 77 71 62 66 75 76 64 69 71 57 55 68 63 59 68 63 63 62 49 59 47 35 69 69 63 47 39 44
92 85 72 90 86 54 75 71 63 79 66 99 187 154 159 133 148 153 137 74 76 90 90 70 52 60 59 51 62 51 58 83 58 77 64 71 83 79 88 95 72 94 107 86 52 59 55 55 52
165 123 99 57 54 32 38 40 61 47 27 23 29 88 86 97 128 135 124 123 116 98 103 75 59 54 55 45 43 42 53 91 74 89 80 80 89 106 95 117 149 122 96 83 78 81 73 64 55
146 66 52 26 22 19 10 -5 23 11 1 -48 4 -8 -3 36 94 104 133 122 100 79 94 88 79 67 54 50 46 49 65 113 108 102 95 90 139 116 109 120 107 100 103 96 87 80 73 64 57
59 41 74 38 65 59 63 -3 70 34 10 36 20 35 -1 14 59 95 102 121 89 97 102 102 134 98 74 62 63 54 72 109 151 132 132 123 121 111 119 107 100 86 108 104 96 88 69 62 51
47 93 32 69 3 70 28 44 75 71 93 69 72 71 65 41 11 57 118 103 71 88 105 126 127 107 81 64 77 61 65 127 193 152 186 141 127 134 155 120 98 90 112 117 103 90 76 56 42
78 34 67 77 38 6 48 31 38 63 36 49 65 69 76 77 83 100 139 162 105 77 102 118 132 110 86 98 91 93 84 207 213 220 233 193 167 179 187 149 138 94 108 117 101 81 68 56 43
100 125 102 79 64 38 48 21 29 35 29 31 51 62 66 66 64 60 89 166 237 206 162 137 141 144 132 141 131 139 136 325 316 320 347 223 219 240 216 186 174 114 106 116 95 79 62 62 52
40 43 42 37 31 42 33 40 32 29 38 43 45 56 59 61 60 49 60 85 120 209 222 212 194 180 181 196 148 149 348 500 503 473 360 317 298 276 258 219 200 153 132 129 103 71 60 57 53
18 32 39 48 76 47 24 36 -19 24 43 28 42 45 36 45 82 68 62 71 100 108 207 250 234 207 215 197 202 294 506 584 555 491 427 379 366 319 319 272 232 172 151 137 111 89 78 52 44
36 32 48 49 42 15 56 5 65 108 70 78 36 35 49 67 89 71 77 85 90 110 138 221 239 266 244 238 240 277 383 431 443 463 471 491 412 384 301 260 243 204 148 126 103 89 80 52 63
52 109 72 70 78 98 72 97 69 108 33 11 -8 23 81 88 69 78 77 96 94 130 128 198 253 255 254 250 277 312 244 240 356 473 462 441 423 371 329 289 194 201 138 123 101 89 86 78 72
128 78 54 58 71 80 16 57 94 81 98 130 102 89 113 75 105 112 106 98 101 130 194 213 230 224 250 283 245 203 224 329 417 489 498 479 405 338 279 244 201 174 136 118 108 100 87 84 88
87 102 76 8 92 142 116 138 262 127 94 94 61 52 48 49 88 72 77 91 92 100 156 254 203 211 243 192 176 154 265 242 294 426 456 435 378 338 259 245 190 162 142 120 104 93 76 76 78
51 107 91 117 82 120 205 182 160 99 144 73 46 21 40 89 66 184 98 75 70 86 110 189 181 195 186 165 172 178 276 240 294 369 360 372 331 276 237 201 201 153 134 119 102 86 79 83 83
101 89 70 130 111 157 184 98 62 32 32 45 33 28 2 28 70 109 149 79 69 56 83 134 157 186 174 157 170 266 207 234 299 324 341 357 314 259 251 207 170 152 138 117 93 91 84 82 99
62 132 167 188 132 104 122 77 138 118 87 137 61 56 65 53 70 91 102 108 66 55 76 101 123 178 158 166 255 232 211 257 379 402 424 381 340 242 253 200 167 150 132 116 109 100 105 105 119
97 114 169 155 226 183 103 215 253 302 290 226 123 23 154 90 84 68 96 25 59 63 75 110 155 161 183 236 213 223 238 265 383 427 389 377 231 249 217 183 160 141 129 119 106 117 118 110 110
69 84 46 190 165 242 285 365 209 125 128 183 119 73 77 77 47 -18 55 -10 57 80 106 144 195 161 222 260 211 212 229 319 386 406 362 205 245 192 225 178 153 143 131 119 119 119 111 111 109
Wind_Speed
55 50 48 45 42 38 49 41 41 35 32 28 34 33 37 43 39 38 17 22 11 11 15 15 14 15 18 19 20 21 23 25 25 24 21 22 24 25 29 32 31 29 27 27 29 29 27 27 29
50 48 43 45 45 47 46 34 34 34 35 37 34 35 36 36 29 23 14 15 9 10 12 12 12 14 16 18 20 22 24 26 26 24 22 23 24 26 28 29 30 29 28 28 28 30 29 30 31
48 42 44 41 45 50 47 31 36 31 36 33 31 29 31 30 25 15 18 10 10 8 10 13 13 13 14 16 19 22 25 26 25 23 20 23 25 25 25 27 29 30 29 28 28 29 30 32 34
39 36 42 48 47 40 48 38 31 34 32 30 32 33 24 28 23 24 9 7 7 7 8 12 11 11 13 15 18 22 25 25 23 23 21 23 23 23 24 26 28 28 29 28 28 29 30 32 32
43 45 50 46 48 49 35 39 32 35 34 34 33 35 32 23 20 16 8 6 4 4 7 7 8 9 12 14 16 19 23 23 21 21 21 23 21 22 23 25 27 28 28 29 30 31 31 32 33
41 43 54 48 47 42 43 34 34 38 39 37 38 37 31 20 17 15 9 7 3 3 7 6 5 7 8 12 14 17 20 22 22 19 20 21 22 23 21 22 25 26 27 29 31 32 33 34 34
55 46 57 60 50 46 36 39 43 42 41 38 37 37 27 24 21 14 12 10 8 7 7 6 3 3 5 9 12 15 17 19 19 19 19 23 25 29 27 19 21 25 27 29 32 32 33 33 34
58 75 63 45 52 52 46 46 46 46 46 34 31 36 37 25 20 16 15 13 11 11 9 8 2 1 3 7 8 12 15 16 16 17 20 22 25 30 29 17 19 24 27 30 32 32 33 34 35
49 73 42 38 52 54 47 41 43 40 43 35 32 43 32 29 23 21 20 18 16 13 11 9 7 4 3 3 5 10 13 15 17 16 16 18 22 24 22 24 22 26 28 31 32 34 34 33 32
54 60 52 62 60 57 52 36 42 39 38 39 36 35 36 33 28 25 26 25 23 17 14 11 9 7 6 5 6 9 11 14 14 14 12 15 21 23 27 24 26 27 29 30 32 33 33 31 29
54 83 62 60 58 55 54 46 46 47 52 30 36 36 35 36 32 30 27 26 26 23 18 15 13 10 9 11 9 14 14 16 15 12 10 11 18 24 25 24 25 25 27 26 29 30 34 38 40
64 68 75 62 52 53 53 59 54 44 52 54 45 47 37 44 39 33 33 30 27 23 23 20 17 16 14 13 13 13 14 15 17 14 11 14 16 19 21 26 28 30 29 33 34 35 36 37 40
61 66 58 66 66 65 64 64 69 62 58 58 67 54 52 51 49 45 38 32 27 24 22 23 22 19 18 16 16 17 17 17 18 15 12 13 15 17 22 26 27 29 32 32 33 35 37 40 43
48 61 68 64 66 67 70 75 67 54 70 57 47 57 54 51 54 51 39 35 34 27 26 25 24 22 20 20 20 21 19 17 17 14 11 12 13 17 21 25 28 31 32 33 35 37 40 42 44
59 69 71 71 66 61 58 78 76 79 67 37 39 33 36 42 53 49 49 43 36 33 31 28 26 26 24 21 22 23 23 19 19 15 11 9 15 17 20 24 27 29 31 32 35 37 40 43 47
52 58 68 46 44 51 46 70 51 48 34 46 42 44 39 39 42 48 45 45 40 37 33 31 31 29 29 29 26 25 24 22 20 19 14 11 14 16 20 22 27 28 29 32 34 38 40 45 48
55 63 56 56 44 49 43 65 50 43 53 54 45 44 39 36 39 42 54 51 44 40 38 36 32 34 33 33 30 29 27 25 21 22 16 15 17 17 19 22 26 26 30 31 33 36 41 45 49
60 61 62 62 43 50 66 82 81 77 73 65 57 50 47 45 40 42 48 63 63 54 47 42 37 38 37 37 36 31 29 26 24 23 22 18 20 19 20 23 24 28 29 29 32 35 39 45 51
57 59 62 59 56 71 82 89 83 77 74 67 63 62 57 54 48 43 45 55 68 67 56 49 47 42 37 34 35 36 37 30 26 26 22 19 17 18 18 22 23 28 29 29 30 34 41 47 53
57 63 67 68 67 69 78 101 94 95 87 74 72 69 67 68 57 51 48 50 56 69 67 58 52 46 43 38 37 36 33 31 29 29 24 20 17 17 19 20 24 26 27 27 31 35 40 45 52
57 64 66 71 73 81 90 106 81 68 60 62 66 72 74 73 68 60 57 56 55 62 76 65 60 52 46 41 37 32 28 33 36 31 27 22 18 17 19 20 23 25 26 28 31 36 42 46 48
61 59 64 68 70 73 53 100 88 80 79 72 64 62 63 63 62 63 68 65 61 60 67 70 62 55 49 42 40 36 37 36 39 30 25 20 19 16 17 18 19 22 24 26 31 35 41 45 49
52 49 57 63 73 86 82 81 98 72 79 70 64 63 63 63 59 62 62 64 72 68 62 67 63 58 51 44 41 37 35 31 28 26 24 21 18 14 15 18 18 21 22 25 29 35 41 45 49
44 53 59 62 67 88 83 69 107 75 69 61 61 51 44 51 57 61 64 66 65 67 64 59 61 55 48 44 41 38 33 26 25 26 26 21 17 15 15 14 17 18 20 25 31 36 41 45 49
42 51 65 70 68 80 60 64 68 68 65 63 56 50 66 64 59 69 69 66 66 62 64 57 61 55 46 43 40 35 30 26 24 24 24 19 16 16 15 12 15 18 20 25 31 37 42 46 52
40 42 54 73 73 86 59 73 65 51 52 54 59 60 61 61 66 65 70 72 66 62 58 57 59 56 47 40 37 32 27 25 22 22 20 16 13 12 8 11 14 14 20 27 33 38 43 47 52
36 41 42 70 77 84 70 67 80 74 68 70 64 61 58 48 48 56 69 70 70 64 59 55 55 52 45 38 34 29 25 23 19 17 14 12 9 8 8 10 14 18 23 29 34 41 46 50 53
28 38 46 44 65 72 65 86 69 59 61 67 71 63 50 42 50 52 60 69 67 64 55 55 50 48 42 35 31 26 22 19 16 13 12 10 9 7 8 12 15 20 26 32 38 44 48 53 56
26 36 33 36 35 62 78 52 55 64 69 70 67 58 40 49 55 59 63 67 61 57 50 49 46 42 38 32 27 23 20 17 14 12 10 7 7 9 12 14 18 24 30 36 42 47 51 55 58
11 14 13 26 46 41 64 67 70 63 55 48 55 41 50 53 59 57 65 62 55 50 43 42 40 37 34 28 24 20 17 15 12 10 9 6 7 9 14 17 22 28 34 40 46 50 53 58 62
Wind_Direction
280 288 292 294 291 291 286 289 289 300 301 296 300 292 296 294 299 288 332 319 2 67 81 79 66 46 34 28 18 11 6 2 1 7 29 28 21 16 3 358 354 343 339 342 348 355 2 2 359
282 287 291 288 285 282 289 289 293 295 300 303 294 293 293 295 315 329 2 344 49 64 75 73 66 43 32 25 21 12 4 357 355 360 16 24 13 2 357 359 353 348 343 341 344 347 347 350 352
282 287 287 288 280 278 285 298 293 298 302 301 297 296 301 304 314 329 339 14 68 57 72 83 74 53 37 17 7 3 359 359 3 5 25 18 10 4 5 359 354 352 351 350 346 344 349 346 345
286 288 286 278 279 286 283 299 295 297 302 304 301 295 302 310 313 312 358 19 69 56 57 90 79 49 34 15 3 357 355 358 3 8 29 16 10 12 7 4 360 360 1 1 1 358 353 351 351
274 278 275 278 278 281 294 290 295 293 298 297 298 288 298 311 324 332 355 17 69 44 18 54 77 62 44 23 11 4 2 2 4 11 15 9 14 11 9 6 5 3 360 356 354 352 350 350 349
271 275 273 274 278 280 282 289 291 288 291 293 292 287 300 318 315 319 328 326 346 9 345 15 77 74 42 18 11 3 1 4 8 9 2 3 3 359 3 9 8 5 3 356 349 347 346 347 349
264 269 271 274 280 279 280 284 283 285 285 288 290 287 298 301 308 313 313 310 302 309 321 344 13 30 18 3 0 2 2 2 2 3 2 349 344 335 336 359 8 1 357 353 349 348 346 348 350
266 261 271 272 277 277 282 283 283 281 282 294 296 285 291 301 303 306 306 305 299 294 297 314 318 27 358 350 358 359 354 2 6 0 346 343 344 338 351 33 9 358 350 343 343 344 343 346 346
271 262 264 266 275 277 286 282 281 285 281 291 289 283 303 306 299 291 291 293 293 291 289 293 288 292 320 343 348 346 347 352 354 352 347 345 341 343 0 351 1 347 342 336 337 338 342 350 360
260 264 269 272 275 276 281 280 283 280 278 276 283 287 294 295 292 284 281 281 282 281 278 282 275 270 282 309 306 319 330 339 352 4 6 349 335 333 330 341 339 339 336 337 338 341 347 357 3
264 258 269 272 277 278 278 280 280 280 277 275 274 280 285 289 286 282 281 281 278 279 276 274 272 271 270 292 297 303 308 319 330 350 13 3 339 328 323 333 333 338 339 345 347 350 345 344 344
263 266 262 273 279 278 278 277 277 278 276 277 282 282 289 283 284 283 280 280 283 274 274 273 271 272 271 282 286 292 294 305 314 325 337 343 337 333 331 324 326 326 333 330 333 336 340 344 344
265 266 273 272 272 274 277 276 275 277 277 277 274 279 279 280 279 281 283 280 278 275 272 272 271 271 274 274 281 284 290 296 303 313 317 332 337 335 328 326 325 327 328 330 332 333 337 338 338
279 271 271 275 273 274 275 273 276 279 269 275 274 276 277 275 274 277 279 278 276 273 271 270 267 267 269 272 277 281 285 289 294 304 304 316 331 334 330 326 325 324 327 328 330 330 331 334 337
274 271 272 272 273 276 283 274 274 258 258 239 270 258 255 260 270 269 274 275 272 271 272 268 264 264 265 267 273 278 281 283 283 291 290 297 320 325 328 325 323 322 324 328 329 330 331 332 334
274 272 270 281 279 279 277 276 288 292 274 281 272 271 248 249 258 263 262 266 267 271 269 268 270 267 265 269 273 276 278 276 274 282 283 283 306 314 320 324 324 327 326 326 328 329 330 331 334
267 267 269 272 284 282 277 281 288 296 287 285 285 285 279 263 242 249 263 261 260 262 266 267 263 266 267 267 270 272 272 273 271 274 277 281 296 304 313 316 322 328 327 328 330 331 331 330 333
266 266 269 273 283 284 280 276 277 279 282 285 287 286 285 280 274 269 263 264 263 264 263 263 259 262 267 270 270 271 272 271 268 268 278 278 289 293 304 311 315 324 327 328 330 331 335 334 333
275 275 274 277 284 283 280 278 280 283 283 285 284 283 281 279 281 273 268 266 263 261 259 255 259 258 259 262 266 267 269 272 269 269 277 277 283 287 296 307 312 317 322 325 331 333 332 333 336
272 273 274 280 284 285 285 277 282 279 281 283 284 282 281 281 277 271 266 263 261 260 258 257 254 254 254 259 264 269 269 276 272 275 278 276 279 286 291 305 310 314 320 325 329 329 332 335 337
272 274 278 281 285 285 285 280 288 290 290 288 286 284 282 280 278 274 268 263 261 258 257 256 254 253 251 254 258 262 273 276 271 269 272 273 273 283 290 300 308 313 319 320 327 331 332 333 339
275 281 283 286 289 288 302 284 287 292 292 291 291 291 289 286 281 277 272 269 262 258 257 254 254 250 249 247 249 247 261 262 266 259 264 271 277 282 296 303 312 315 320 321 326 333 333 334 334
281 298 293 294 291 290 289 288 287 299 295 296 293 293 290 287 285 282 276 271 267 265 255 253 252 250 247 242 246 250 260 263 258 256 256 265 272 283 299 306 311 315 320 326 329 331 333 335 334
302 299 299 299 297 289 291 284 290 299 304 306 303 297 296 298 288 288 282 275 269 262 261 250 248 247 243 239 244 245 247 246 247 246 253 258 265 278 291 303 309 319 324 327 330 332 334 334 335
295 301 297 295 293 293 304 294 288 303 305 305 305 295 296 297 291 288 283 276 269 262 254 250 247 244 238 239 241 241 238 240 238 238 245 242 253 267 281 301 308 315 324 329 332 333 334 334 333
294 296 298 297 298 300 305 298 303 310 311 311 306 301 297 295 292 287 285 276 269 261 253 246 242 241 238 235 237 235 233 245 243 242 240 242 244 262 269 300 318 324 330 330 332 333 333 333 333
309 297 307 301 302 301 301 303 303 303 299 304 301 300 295 298 301 301 285 280 265 261 252 244 239 235 234 232 232 231 234 236 232 234 234 239 242 260 289 314 317 325 329 332 333 332 332 332 332
301 321 314 310 310 308 313 307 308 309 305 309 306 302 299 298 303 310 297 280 265 258 250 241 236 230 228 225 227 230 231 233 226 226 228 233 263 268 304 314 321 328 331 333 332 331 331 331 331
304 303 313 320 314 317 316 317 334 324 317 314 312 303 303 302 301 308 297 278 264 255 246 236 231 223 219 218 220 221 226 219 217 216 217 247 259 294 308 319 325 328 331 332 331 330 331 331 330
296 308 260 311 320 312 313 280 319 320 319 314 311 307 300 302 303 304 287 272 258 249 240 230 224 216 214 213 214 216 210 209 208 207 231 218 282 302 316 322 326 330 331 331 330 330 331 330 329